EW4238 Weather Reports


Display with metric or nautical units.
time (UTC)temp
F
wind
direction
speed
MPH
gust
MPH
rain 1hr
in
rain 24hr
in
rain mn
in
humidity
%
barometer
mb
20260906233019 68 42 2.0 5.0 0.00 0.81 0.03 68 1012.4
20260906231514 65 341 4.0 8.0 0.01 0.81 0.03 74 1012.4
20260906230034 64 311 4.0 8.0 0.01 0.81 0.03 72 1012.8
20260906224511 64 313 3.0 7.0 0.01 0.81 0.03 73 1012.8
20260906223009 63 350 2.0 10.0 0.01 0.81 0.03 75 1013.0
20260906221509 63 316 2.0 8.0 0.00 0.80 0.02 73 1013.1
20260906220010 63 297 1.0 4.0 0.00 0.80 0.02 73 1013.2
20260906214506 63 325 2.0 4.0 0.01 0.80 0.02 74 1013.1
20260906213006 63 302 1.0 4.0 0.01 0.80 0.02 74 1012.9
20260906211503 62 12 0.0 3.0 0.01 0.80 0.02 79 1012.9
20260906210002 62 34 0.0 1.0 0.01 0.80 0.02 79 1012.8
20260906204609 62 62 0.0 2.0 0.01 0.80 0.02 79 1012.9
20260906203100 62 79 0.0 0.0 0.00 0.79 0.01 79 1012.9
20260906201603 62 56 0.0 2.0 0.01 0.79 0.01 78 1012.9
20260906200059 61 57 0.0 3.0 0.01 0.79 0.01 79 1012.9
20260906194600 61 47 0.0 2.0 0.01 0.79 0.01 79 1012.8
20260906193058 61 57 0.0 0.0 0.02 0.79 0.01 80 1013.0
20260906191611 61 72 0.0 2.0 0.01 0.78 0.00 78 1013.1
20260906190057 61 360 0.0 5.0 0.01 0.78 0.00 77 1013.0
20260906184600 61 106 1.0 8.0 0.01 0.78 0.00 80 1013.2
20260906183054 60 101 2.0 7.0 0.01 0.77 0.77 82 1013.2
20260906181553 59 18 0.0 3.0 0.01 0.77 0.77 86 1012.9
20260906180109 58 74 1.0 5.0 0.01 0.77 0.77 88 1013.1
20260906174548 57 86 0.0 3.0 0.02 0.77 0.77 89 1013.9
20260906173048 56 33 0.0 3.0 0.01 0.76 0.76 90 1014.3
20260906171547 56 48 0.0 4.0 0.01 0.76 0.76 91 1014.5
20260906170054 56 42 2.0 8.0 0.01 0.76 0.76 94 1014.6
20260906164546 54 21 1.0 6.0 0.02 0.76 0.76 92 1015.3
20260906163103 54 306 7.0 11.0 0.01 0.75 0.75 92 1015.8
20260906161645 55 323 4.0 9.0 0.01 0.75 0.75 93 1015.6
20260906160045 55 22 2.0 5.0 0.02 0.75 0.75 95 1015.1
20260906154544 54 358 2.0 8.0 0.01 0.74 0.74 94 1015.1
20260906153051 53 27 5.0 12.0 0.02 0.74 0.74 94 1015.3
20260906151544 53 353 4.0 10.0 0.02 0.74 0.74 94 1015.7
20260906150044 53 343 4.0 11.0 0.01 0.73 0.73 94 1015.8
20260906144544 53 8 5.0 9.0 0.01 0.73 0.73 93 1016.1
20260906143050 52 339 6.0 18.0 0.00 0.73 0.72 93 1016.6
20260906141542 53 291 13.0 20.0 0.01 0.73 0.72 92 1016.6
20260906140044 53 306 12.0 17.0 0.01 0.73 0.72 91 1016.5
20260906134538 55 321 9.0 18.0 0.01 0.73 0.72 89 1016.4
20260906133038 55 339 1.0 4.0 0.01 0.79 0.72 90 1015.7
20260906131538 55 45 0.0 3.0 0.00 0.78 0.71 91 1015.2
20260906130042 54 45 0.0 2.0 0.01 0.78 0.71 91 1015.1
20260906124538 54 5 1.0 4.0 0.01 0.78 0.71 91 1015.3
20260906123035 54 353 3.0 7.0 0.01 0.78 0.71 90 1015.7
20260906121535 54 34 3.0 12.0 0.02 0.78 0.71 91 1015.7
20260906120035 54 350 5.0 20.0 0.01 0.77 0.70 91 1016.1
20260906114536 54 320 6.0 28.0 0.01 0.77 0.70 91 1016.4
20260906113034 54 307 4.0 9.0 0.02 0.77 0.70 92 1016.5
20260906111534 54 63 0.0 6.0 0.01 0.76 0.69 92 1015.4
20260906110033 54 48 1.0 4.0 0.02 0.76 0.69 93 1015.1
20260906104531 54 62 1.0 5.0 0.03 0.76 0.69 93 1015.1
20260906103030 54 79 1.0 3.0 0.04 0.76 0.69 93 1015.3
20260906101531 54 235 1.0 5.0 0.04 0.75 0.68 93 1015.8
20260906100029 54 83 1.0 4.0 0.04 0.74 0.67 93 1015.8
20260906094529 54 52 1.0 3.0 0.06 0.74 0.67 93 1015.9
20260906093037 54 77 1.0 6.0 0.08 0.73 0.66 93 1015.9
20260906091528 54 22 0.0 3.0 0.09 0.72 0.65 93 1016.2
20260906090129 53 16 1.0 5.0 0.11 0.71 0.64 93 1016.5
20260906084527 53 4 1.0 7.0 0.11 0.68 0.61 92 1017.4
20260906083027 54 22 2.0 7.0 0.15 0.66 0.59 92 1017.2
20260906081527 54 288 7.0 14.0 0.13 0.63 0.56 91 1018.0
20260906080021 55 318 4.0 9.0 0.11 0.61 0.54 92 1016.7
20260906074520 54 57 3.0 9.0 0.10 0.57 0.51 91 1016.0
20260906073018 55 22 2.0 12.0 0.06 0.53 0.46 91 1017.3
20260906071517 54 272 2.0 7.0 0.06 0.50 0.43 91 1017.3
20260906070017 54 27 2.0 5.0 0.17 0.50 0.43 91 1016.6
20260906064520 54 18 2.0 6.0 0.16 0.48 0.41 90 1017.6
20260906063015 55 26 4.0 8.0 0.15 0.47 0.40 90 1017.6
20260906061513 55 56 2.0 5.0 0.13 0.45 0.38 90 1018.6
20260906060020 55 307 6.0 11.0 0.04 0.34 0.27 89 1019.3
20260906054509 55 360 3.0 6.0 0.09 0.32 0.25 89 1017.9
20260906053016 55 351 3.0 8.0 0.09 0.32 0.25 89 1018.1
20260906051507 55 12 1.0 7.0 0.09 0.32 0.25 88 1017.6
20260906050004 55 40 2.0 9.0 0.08 0.31 0.24 87 1017.4
20260906044504 55 229 0.0 5.0 0.04 0.24 0.17 86 1018.8
20260906043003 55 351 1.0 6.0 0.11 0.23 0.16 86 1017.3
20260906041507 55 35 1.0 4.0 0.15 0.23 0.16 86 1017.2
20260906040100 56 151 0.0 5.0 0.16 0.23 0.16 84 1016.9
20260906034559 57 35 1.0 3.0 0.14 0.21 0.14 81 1015.3
20260906033100 58 53 0.0 4.0 0.07 0.14 0.07 79 1018.4
20260906031552 59 6 1.0 5.0 0.01 0.08 0.01 75 1017.8
20260906030051 60 46 2.0 8.0 0.00 0.07 0.00 69 1016.5
20260906024547 60 70 2.0 5.0 0.00 0.07 0.00 68 1015.6
20260906023046 61 35 2.0 7.0 0.00 0.07 0.00 67 1015.1
20260906021541 61 89 2.0 7.0 0.00 0.07 0.00 66 1015.2
20260906020040 62 38 1.0 8.0 0.00 0.07 0.00 65 1015.3
20260906014544 63 76 1.0 7.0 0.00 0.07 0.00 63 1015.3
20260906013034 64 60 2.0 9.0 0.00 0.07 0.00 61 1015.3
20260906011530 66 36 0.0 4.0 0.00 0.07 0.00 57 1015.1
20260906010029 68 122 1.0 4.0 0.00 0.07 0.00 56 1015.1
20260906004530 69 25 1.0 7.0 0.00 0.07 0.00 53 1015.1
20260906003028 71 32 2.0 6.0 0.00 0.07 0.00 51 1015.0
20260906001525 71 14 3.0 11.0 0.00 0.07 0.00 50 1015.4
20260906000026 72 12 4.0 11.0 0.00 0.07 0.00 50 1015.3
20260905234525 72 37 2.0 12.0 0.00 0.07 0.00 50 1015.6